Find Inmarsat 5F1

NORAD ID: 39476 Int'l Des: 2013-073 Owner: INMRL Country: UK operational
HEOCIRCULARGSOGEO

Aktuelle Ansicht

3D-Globus wird geladen...

Über Inmarsat 5F1

Beschreibung wird geladen...

Nächste Überflüge

Passes for default location (London). Set your location on the main map for personalized predictions.

Höhenverlauf

Loading altitude history...

Zweizeiliger Elementsatz

1 39476U 13073A 26151.51362483 .00000040 00000-0 00000+0 0 9993
2 39476 0.0178 350.1366 0000356 10.0667 136.3592 1.00272433 45410
Epoch: 31. Mai 2026 • Age: 11 hours

Aktueller Status

Höhe 35785.1 km
Geschwindigkeit 3.07 km/s
Subsatellitenpunkt -0.03°S, 62.64°E
Startdatum 8. Dez. 2013
Alter 12.4 years
Typ communications

Technische Details

Klassifizierung Payload
Masse 6090.00 kg
Trockenmasse 3500.00 kg
Gesamtmasse 6090.00 kg
Länge 7.00 m
Durchmesser 3.20 m
Spannweite 33.80 m
Form Box + 2 pan
Hersteller BOES
Bus-Typ BSS-702HP
Phasenstatus In Orbit
Besitzer/Staat INMRL/UK

Most Searched